period_start,C,m1,H,J0,J1,J2,J3,J4,J5,JA,JB,JC,JD,JJ,JK,JN,#
2014-05-28 00:02:55,0.01,0.54,0.00,21.38,27.30,29.31,9.79,40.62,1018.56,2038.00,3286.00,3163.97,3425.80,500.43,500.71,24.02,0000 0000 0000 0000 000000
2014-05-28 00:07:56,0.04,0.54,0.00,21.38,27.30,29.28,9.71,40.70,1018.57,2038.00,3285.65,3163.36,3425.09,499.97,500.30,24.06,0000 0000 0000 0000 000000
2014-05-28 00:12:58,0.01,0.54,0.00,21.41,27.30,29.32,9.74,40.73,1018.57,2038.00,3285.02,3163.03,3424.98,499.91,500.24,24.11,0000 0000 0000 0000 000000
2014-05-28 00:17:58,0.01,0.54,0.00,21.38,27.30,29.31,9.73,40.93,1018.56,2038.01,3284.79,3162.97,3424.62,499.86,500.24,24.15,0000 0000 0000 0000 000000
2014-05-28 00:22:59,0.04,0.54,0.00,21.38,27.30,29.35,9.70,40.81,1018.57,2038.00,3284.04,3162.43,3424.03,500.04,500.30,24.19,0000 0000 0000 0000 000000
2014-05-28 00:28:01,0.01,0.54,0.00,21.38,27.30,29.33,9.70,40.77,1018.57,2038.00,3283.89,3162.01,3423.92,500.17,500.51,24.23,0000 0000 0000 0000 000000
2014-05-28 00:33:02,0.03,0.54,0.00,21.40,27.30,29.33,9.70,40.68,1018.57,2038.00,3283.15,3161.96,3423.19,499.53,500.04,24.27,0000 0000 0000 0000 000000
2014-05-28 00:38:03,0.03,0.54,0.00,21.38,27.32,29.36,9.81,40.82,1018.57,2038.00,3282.82,3161.23,3422.86,500.37,500.75,24.32,0000 0000 0000 0000 000000
2014-05-28 00:43:05,0.03,0.55,0.00,21.39,27.32,29.37,9.74,40.67,1018.57,2038.00,3282.06,3161.00,3422.10,500.41,501.03,24.36,0000 0000 0000 0000 000000
2014-05-28 00:48:06,0.03,0.55,0.00,21.41,27.32,29.36,9.72,40.72,1018.57,2038.00,3281.69,3160.55,3421.95,500.38,500.93,24.40,0000 0000 0000 0000 000000
2014-05-28 00:53:07,0.03,0.55,0.00,21.39,27.32,29.37,9.69,40.62,1018.57,2038.00,3281.06,3160.03,3421.25,500.24,500.51,24.44,0000 0000 0000 0000 000000
2014-05-28 00:58:08,0.01,0.55,0.00,21.39,27.32,29.37,9.63,40.70,1018.56,2038.00,3280.77,3159.98,3420.99,499.71,500.18,24.48,0000 0000 0000 0000 000000
2014-05-28 01:03:09,0.05,0.55,0.00,21.38,27.33,29.38,9.68,40.67,1018.56,2038.00,3280.05,3159.25,3420.27,499.83,500.21,24.52,0000 0000 0000 0000 000000
2014-05-28 01:08:10,0.02,0.55,0.00,21.40,27.34,29.38,9.76,40.73,1018.57,2038.00,3279.32,3158.98,3419.94,500.32,500.69,24.57,0000 0000 0000 0000 000000
2014-05-28 01:13:12,0.04,0.55,0.00,21.41,27.35,29.41,9.61,40.49,1018.57,2038.00,3278.93,3158.36,3419.24,500.10,500.50,24.61,0000 0000 0000 0000 000000
2014-05-28 01:18:13,0.02,0.56,0.00,21.38,27.35,29.37,9.70,40.66,1018.57,2038.00,3278.13,3157.98,3418.83,499.80,500.22,24.65,0000 0000 0000 0000 000000
2014-05-28 01:23:14,0.05,0.56,0.00,21.39,27.35,29.38,9.64,40.51,1018.57,2038.00,3277.70,3157.34,3418.05,499.61,500.12,24.69,0000 0000 0000 0000 000000
2014-05-28 01:28:16,0.02,0.56,0.00,21.43,27.35,29.42,9.66,40.64,1018.56,2038.00,3277.00,3156.99,3417.67,499.77,500.15,24.73,0000 0000 0000 0000 000000
2014-05-28 01:33:17,0.04,0.56,0.00,21.40,27.35,29.41,9.62,40.64,1018.54,2038.00,3276.32,3156.54,3417.01,499.96,500.44,24.78,0000 0000 0000 0000 000000
2014-05-28 01:38:18,0.03,0.56,0.00,21.39,27.37,29.40,9.68,40.63,1018.44,2038.00,3275.81,3156.01,3416.50,499.99,500.29,24.82,0000 0000 0000 0000 000000
2014-05-28 01:43:18,0.03,0.56,0.00,21.39,27.37,29.44,9.70,40.77,1018.40,2038.00,3275.06,3155.54,3415.98,499.94,500.15,24.86,0000 0000 0000 0000 000000
2014-05-28 01:48:20,0.03,0.57,0.00,21.39,27.37,29.42,9.74,40.67,1018.40,2038.00,3274.64,3155.01,3415.21,500.02,500.37,24.90,0000 0000 0000 0000 000000
2014-05-28 01:53:21,0.02,0.57,0.00,21.37,27.37,29.41,9.68,40.64,1018.28,2038.00,3273.98,3154.76,3414.85,499.84,500.12,24.94,0000 0000 0000 0000 000000
2014-05-28 01:58:22,0.05,0.57,0.00,21.39,27.37,29.45,9.68,40.67,1018.29,2038.00,3273.18,3154.03,3414.07,499.81,499.97,24.99,0000 0000 0000 0000 000000
2014-05-28 02:03:23,0.02,0.57,0.00,21.41,27.39,29.38,9.65,40.58,1018.41,2038.00,3272.76,3153.88,3413.75,500.14,500.32,25.03,0000 0000 0000 0000 000000
2014-05-28 02:08:24,0.04,0.57,0.00,21.42,27.40,29.33,9.73,40.46,1018.29,2038.00,3271.99,3153.10,3413.03,500.18,500.53,25.07,0000 0000 0000 0000 000000
2014-05-28 02:13:25,0.03,0.57,0.00,21.44,27.40,29.33,9.78,40.72,1018.25,2038.00,3271.29,3152.91,3412.45,500.41,500.45,25.11,0000 0000 0000 0000 000000
2014-05-28 02:18:27,0.04,0.57,0.00,21.44,27.40,29.35,9.62,40.53,1018.24,2037.99,3270.68,3152.11,3411.97,499.94,500.05,25.15,0000 0000 0000 0000 000000
2014-05-28 02:23:28,0.02,0.58,0.00,21.41,27.40,29.34,9.68,40.52,1018.16,2037.99,3269.97,3151.91,3411.22,499.79,500.00,25.20,0000 0000 0000 0000 000000
2014-05-28 02:28:29,0.06,0.58,0.00,21.45,27.40,29.34,9.73,40.66,1018.14,2037.99,3269.09,3151.10,3410.50,500.55,500.72,25.24,0000 0000 0000 0000 000000
2014-05-28 02:33:30,0.04,0.58,0.00,21.44,27.40,29.38,9.73,40.55,1018.09,2037.98,3268.35,3150.69,3409.88,499.85,500.29,25.28,0000 0000 0000 0000 000000
2014-05-28 02:38:31,0.03,0.58,0.00,21.47,27.41,29.47,9.74,40.90,1018.09,2037.98,3267.98,3150.03,3409.09,500.36,500.44,25.32,0000 0000 0000 0000 000000
2014-05-28 02:43:32,0.03,0.58,0.00,21.44,27.42,29.46,9.69,40.82,1018.09,2037.97,3267.21,3149.90,3408.82,500.02,500.03,25.36,0000 0000 0000 0000 000000
2014-05-28 02:48:34,0.04,0.58,0.00,21.43,27.42,29.47,9.76,40.69,1018.09,2037.97,3266.75,3149.17,3408.06,500.27,500.33,25.40,0000 0000 0000 0000 000000
2014-05-28 02:53:35,0.02,0.59,0.00,21.46,27.42,29.49,9.69,40.77,1018.09,2037.97,3266.00,3148.94,3407.61,499.85,499.83,25.45,0000 0000 0000 0000 000000
2014-05-28 02:58:36,0.05,0.59,0.00,21.45,27.42,29.48,9.69,40.76,1018.09,2037.94,3265.29,3148.25,3407.00,500.01,500.08,25.49,0000 0000 0000 0000 000000
2014-05-28 03:03:37,0.02,0.59,0.00,21.48,27.42,29.47,9.70,40.71,1018.08,2037.95,3264.82,3148.00,3406.43,500.13,500.14,25.53,0000 0000 0000 0000 000000
2014-05-28 03:08:38,0.04,0.59,0.00,21.49,27.42,29.51,9.74,40.71,1018.07,2037.95,3264.05,3147.48,3405.96,499.87,499.90,25.57,0000 0000 0000 0000 000000
2014-05-28 03:13:39,0.04,0.59,0.00,21.44,27.44,29.50,9.78,40.73,1017.96,2037.94,3263.33,3147.00,3405.13,500.46,500.42,25.61,0000 0000 0000 0000 000000
2014-05-28 03:18:40,0.02,0.59,0.00,21.47,27.45,29.49,9.72,40.80,1017.69,2037.96,3262.99,3146.64,3404.86,499.91,499.82,25.66,0000 0000 0000 0000 000000
2014-05-28 03:23:41,0.04,0.60,0.00,21.50,27.45,29.48,9.70,40.73,1017.62,2037.96,3262.29,3146.03,3404.08,499.95,499.65,25.70,0000 0000 0000 0000 000000
2014-05-28 03:28:43,0.05,0.60,0.00,21.51,27.45,29.47,9.72,40.77,1017.61,2037.94,3261.55,3145.60,3403.57,499.86,499.50,25.74,0000 0000 0000 0000 000000
2014-05-28 03:33:44,0.01,0.60,0.00,21.50,27.45,29.48,9.63,40.70,1017.61,2037.83,3260.87,3145.00,3402.89,499.88,499.63,25.78,0000 0000 0000 0000 000000
2014-05-28 03:38:45,0.04,0.60,0.00,21.53,27.45,29.49,9.77,40.80,1017.60,2037.74,3260.07,3144.41,3402.11,500.08,499.80,25.82,0000 0000 0000 0000 000000
2014-05-28 03:43:47,0.02,0.60,0.00,21.50,27.46,29.51,9.75,40.85,1017.59,2037.70,3259.56,3144.01,3401.70,500.17,500.19,25.87,0000 0000 0000 0000 000000
2014-05-28 03:48:48,0.04,0.60,0.00,21.50,27.47,29.49,9.69,40.77,1017.59,2037.73,3258.89,3143.65,3401.01,500.33,499.99,25.91,0000 0000 0000 0000 000000
2014-05-28 03:53:48,0.05,0.61,0.00,21.50,27.47,29.48,9.72,40.53,1017.59,2037.85,3258.07,3143.02,3400.40,499.62,499.33,25.95,0000 0000 0000 0000 000000
2014-05-28 03:58:50,0.03,0.61,0.00,21.53,27.47,29.49,9.75,40.73,1017.59,2037.85,3257.54,3142.77,3399.97,500.19,499.85,25.99,0000 0000 0000 0000 000000
2014-05-28 04:03:51,0.05,0.61,0.00,21.48,27.47,29.48,9.69,40.75,1017.54,2037.82,3256.51,3142.04,3399.16,500.30,499.97,26.03,0000 0000 0000 0000 000000
2014-05-28 04:08:52,0.03,0.61,0.00,21.52,27.49,29.48,9.61,40.63,1017.47,2037.58,3256.02,3141.51,3398.48,500.19,499.80,26.08,0000 0000 0000 0000 000000
2014-05-28 04:13:53,0.00,0.61,0.00,21.58,27.50,29.54,9.66,40.70,1017.44,2037.40,3255.36,3141.01,3397.97,499.67,499.20,26.12,0000 0000 0000 0000 000000
2014-05-28 04:18:54,0.07,0.61,0.00,21.73,27.50,29.89,9.68,40.88,1017.50,2037.51,3254.64,3140.59,3397.23,499.98,499.33,26.16,0000 0000 0000 0000 000000
2014-05-28 04:23:55,0.01,0.61,0.00,22.13,27.50,30.33,9.69,40.71,1017.52,2037.38,3254.01,3140.01,3396.61,500.50,498.98,26.20,0000 0000 0000 0000 000000
2014-05-28 04:28:56,0.03,0.62,0.00,22.33,27.52,30.29,9.69,40.69,1017.40,2037.32,3253.38,3139.46,3396.02,500.38,498.58,26.24,0000 0000 0000 0000 000000
2014-05-28 04:33:57,0.02,0.62,0.00,22.45,27.52,30.37,9.68,40.74,1017.29,2037.15,3252.83,3139.00,3395.21,499.94,497.95,26.28,0000 0000 0000 0000 000000
2014-05-28 04:38:58,0.03,0.62,0.00,22.51,27.52,30.47,9.70,40.86,1017.29,2037.11,3252.05,3138.54,3394.82,499.90,497.77,26.33,0000 0000 0000 0000 000000
2014-05-28 04:43:59,0.04,0.62,0.00,22.56,27.52,30.50,9.64,40.73,1017.22,2037.09,3251.40,3138.01,3394.05,499.56,497.28,26.37,0000 0000 0000 0000 000000
2014-05-28 04:49:00,0.03,0.62,0.00,22.59,27.52,30.51,9.66,40.85,1017.34,2037.12,3250.95,3137.71,3393.72,500.10,497.93,26.41,0000 0000 0000 0000 000000
2014-05-28 04:54:01,0.04,0.62,0.00,22.58,27.52,30.52,9.67,40.60,1017.31,2037.12,3250.14,3137.06,3393.03,500.06,497.93,26.45,0000 0000 0000 0000 000000
2014-05-28 04:59:02,0.04,0.62,0.00,22.58,27.52,30.51,9.55,40.53,1017.18,2037.09,3249.53,3136.76,3392.43,500.11,497.79,26.49,0000 0000 0000 0000 000000
2014-05-28 05:04:04,0.03,0.63,0.00,22.59,27.52,30.52,9.68,40.49,1017.13,2037.07,3248.87,3136.03,3391.89,500.44,498.13,26.54,0000 0000 0000 0000 000000
2014-05-28 05:09:05,0.05,0.63,0.00,22.59,27.52,30.50,9.64,40.56,1017.12,2037.13,3248.10,3135.77,3391.13,500.09,497.64,26.58,0000 0000 0000 0000 000000
2014-05-28 05:14:06,0.04,0.63,0.00,22.58,27.52,30.50,9.63,40.41,1017.12,2037.15,3247.66,3135.06,3390.97,500.32,497.94,26.62,0000 0000 0000 0000 000000
2014-05-28 05:19:08,0.02,0.63,0.00,22.57,27.52,30.51,9.66,40.58,1017.12,2037.13,3246.94,3134.98,3390.21,500.26,498.09,26.66,0000 0000 0000 0000 000000
2014-05-28 05:24:09,0.06,0.63,0.00,22.59,27.52,30.52,9.71,40.52,1017.12,2037.08,3246.11,3134.27,3389.58,500.29,497.82,26.70,0000 0000 0000 0000 000000
2014-05-28 05:29:10,0.03,0.63,0.00,22.58,27.52,30.52,9.71,40.52,1017.15,2037.22,3245.45,3133.97,3388.97,500.59,498.15,26.75,0000 0000 0000 0000 000000
2014-05-28 05:34:11,0.04,0.64,0.00,22.59,27.52,30.50,9.65,40.61,1017.11,2037.11,3244.90,3133.31,3388.24,499.59,497.51,26.79,0000 0000 0000 0000 000000
2014-05-28 05:39:13,0.03,0.64,0.00,22.59,27.51,30.51,9.58,40.54,1017.11,2037.11,3244.07,3132.99,3387.76,500.09,497.86,26.83,0000 0000 0000 0000 000000
2014-05-28 05:44:14,0.06,0.64,0.00,22.61,27.50,30.50,9.62,40.42,1017.11,2037.16,3243.49,3132.33,3387.02,500.00,497.67,26.87,0000 0000 0000 0000 000000
2014-05-28 05:49:16,0.02,0.64,0.00,22.60,27.50,30.50,9.62,40.44,1017.11,2037.06,3242.86,3131.96,3386.32,500.38,497.97,26.91,0000 0000 0000 0000 000000
2014-05-28 05:54:17,0.05,0.64,0.00,22.62,27.50,30.50,9.65,40.33,1017.11,2037.04,3242.04,3131.21,3385.79,500.01,497.75,26.96,0000 0000 0000 0000 000000
2014-05-28 05:59:18,0.03,0.64,0.00,22.55,27.50,30.50,9.65,40.38,1017.11,2037.07,3241.26,3130.96,3385.03,500.20,497.87,27.00,0000 0000 0000 0000 000000
2014-05-28 06:04:19,0.05,0.65,0.00,22.59,27.50,30.49,9.63,40.49,1017.11,2037.05,3240.65,3130.21,3384.41,499.96,497.62,27.04,0000 0000 0000 0000 000000
2014-05-28 06:09:20,0.02,0.65,0.00,22.63,27.50,30.48,9.64,40.51,1017.11,2037.08,3239.98,3129.97,3383.98,500.18,497.76,27.08,0000 0000 0000 0000 000000
2014-05-28 06:14:21,0.06,0.65,0.00,22.65,27.50,30.47,9.59,40.51,1017.11,2037.08,3239.15,3129.22,3383.17,499.79,497.42,27.12,0000 0000 0000 0000 000000
2014-05-28 06:19:22,0.04,0.65,0.00,22.66,27.50,30.47,9.65,40.62,1017.06,2037.05,3238.38,3128.84,3382.51,499.75,497.23,27.16,0000 0000 0000 0000 000000
2014-05-28 06:24:24,0.04,0.65,0.00,22.66,27.50,30.41,9.59,40.52,1017.06,2037.01,3237.62,3128.08,3381.83,499.71,497.20,27.21,0000 0000 0000 0000 000000
2014-05-28 06:29:25,0.02,0.65,0.00,22.67,27.50,30.38,9.61,40.52,1017.04,2037.03,3236.97,3127.81,3381.05,499.73,497.23,27.25,0000 0000 0000 0000 000000
2014-05-28 06:34:26,0.05,0.66,0.00,22.68,27.50,30.46,9.66,40.57,1016.96,2037.02,3236.15,3127.08,3380.44,499.95,497.40,27.29,0000 0000 0000 0000 000000
2014-05-28 06:39:27,0.03,0.66,0.00,22.67,27.50,30.50,9.57,40.48,1016.81,2037.03,3235.46,3126.73,3379.95,499.70,497.14,27.33,0000 0000 0000 0000 000000
2014-05-28 06:44:28,0.04,0.66,0.00,22.67,27.50,30.48,9.61,40.55,1016.74,2037.06,3234.82,3126.04,3379.16,499.80,497.33,27.37,0000 0000 0000 0000 000000
2014-05-28 06:49:28,0.03,0.66,0.00,22.67,27.50,30.49,9.56,40.52,1016.66,2037.03,3234.03,3125.81,3378.72,499.56,496.80,27.41,0000 0000 0000 0000 000000
2014-05-28 06:54:30,0.05,0.66,0.00,22.65,27.50,30.49,9.68,40.57,1016.65,2037.05,3233.28,3125.06,3378.03,499.87,497.37,27.46,0000 0000 0000 0000 000000
2014-05-28 06:59:31,0.03,0.66,0.00,22.65,27.50,30.51,9.63,40.54,1016.66,2037.05,3232.62,3124.82,3377.38,499.98,497.45,27.50,0000 0000 0000 0000 000000
2014-05-28 07:04:32,0.03,0.67,0.00,22.65,27.50,30.51,9.63,40.60,1016.69,2037.06,3232.03,3124.10,3376.99,500.33,497.71,27.54,0000 0000 0000 0000 000000
2014-05-28 07:09:33,0.04,0.67,0.00,22.62,27.50,30.51,9.60,40.43,1016.95,2037.11,3231.45,3123.97,3376.32,499.48,496.98,27.58,0000 0000 0000 0000 000000
2014-05-28 07:14:34,0.04,0.67,0.00,22.61,27.50,30.50,9.65,40.48,1016.87,2037.19,3230.83,3123.37,3375.93,500.13,497.73,27.62,0000 0000 0000 0000 000000
2014-05-28 07:19:35,0.03,0.67,0.00,22.62,27.50,30.49,9.60,40.51,1016.82,2037.14,3230.05,3123.00,3375.13,500.09,497.48,27.67,0000 0000 0000 0000 000000
2014-05-28 07:24:37,0.05,0.67,0.00,22.64,27.50,30.51,9.60,40.69,1016.95,2037.08,3229.52,3122.45,3374.71,499.58,497.33,27.71,0000 0000 0000 0000 000000
2014-05-28 07:29:38,0.02,0.68,0.00,22.64,27.50,30.51,9.58,40.48,1017.07,2037.09,3229.00,3122.01,3374.04,499.94,497.37,27.75,0000 0000 0000 0000 000000
2014-05-28 07:34:39,0.03,0.68,0.00,22.62,27.50,30.48,9.66,40.61,1017.05,2037.09,3228.43,3121.88,3373.77,499.84,497.38,27.79,0000 0000 0000 0000 000000
2014-05-28 07:39:40,0.04,0.68,0.00,22.62,27.50,30.50,9.62,40.48,1017.07,2037.13,3227.99,3121.13,3373.04,499.88,497.38,27.83,0000 0000 0000 0000 000000
2014-05-28 07:44:42,0.03,0.68,0.00,22.61,27.50,30.50,9.65,40.43,1017.07,2037.15,3227.21,3121.00,3372.82,500.30,497.77,27.88,0000 0000 0000 0000 000000
2014-05-28 07:49:43,0.06,0.68,0.00,22.62,27.50,30.52,9.66,40.34,1017.02,2037.27,3226.72,3120.55,3372.10,500.10,497.60,27.92,0000 0000 0000 0000 000000
2014-05-28 07:54:44,0.03,0.68,0.00,22.62,27.50,30.51,9.62,40.31,1016.94,2037.43,3226.01,3120.01,3371.70,500.20,497.84,27.96,0000 0000 0000 0000 000000
2014-05-28 07:59:45,0.03,0.69,0.00,22.60,27.50,30.51,9.62,40.38,1016.75,2037.31,3225.25,3119.54,3371.01,500.20,497.59,28.00,0000 0000 0000 0000 000000
2014-05-28 08:04:47,0.02,0.69,0.00,22.60,27.50,30.51,9.63,40.39,1016.84,2037.20,3224.80,3119.01,3370.31,499.99,497.43,28.04,0000 0000 0000 0000 000000
2014-05-28 08:09:48,0.04,0.69,0.00,22.59,27.50,30.51,9.64,40.50,1016.66,2037.29,3224.07,3118.88,3369.99,500.19,497.57,28.08,0000 0000 0000 0000 000000
2014-05-28 08:14:49,0.04,0.69,0.00,22.59,27.50,30.50,9.60,40.39,1016.62,2037.30,3223.70,3118.13,3369.39,499.83,497.22,28.13,0000 0000 0000 0000 000000
2014-05-28 08:19:50,0.06,0.69,0.00,22.61,27.50,30.49,9.62,40.44,1016.62,2037.67,3223.03,3117.99,3369.02,499.86,497.25,28.17,0000 0000 0000 0000 000000
2014-05-28 08:24:51,0.03,0.69,0.00,22.61,27.50,30.51,9.61,40.49,1016.62,2037.63,3222.47,3117.66,3368.66,500.18,497.49,28.21,0000 0000 0000 0000 000000
2014-05-28 08:29:52,0.02,0.69,0.00,22.60,27.50,30.50,9.60,40.42,1016.62,2037.56,3222.02,3117.07,3368.03,500.10,497.57,28.25,0000 0000 0000 0000 000000
2014-05-28 08:34:53,0.02,0.69,0.00,22.61,27.50,30.50,9.65,40.43,1016.62,2037.55,3221.66,3117.00,3367.95,499.61,496.96,28.29,0000 0000 0000 0000 000000
2014-05-28 08:39:54,0.03,0.70,0.00,22.60,27.50,30.50,9.74,40.82,1016.62,2037.56,3221.02,3116.66,3367.23,500.44,497.97,28.34,0000 0000 0000 0000 000000
2014-05-28 08:44:56,0.02,0.70,0.00,22.60,27.50,30.50,9.65,40.49,1016.62,2037.45,3220.54,3116.03,3366.99,500.17,497.44,28.38,0000 0000 0000 0000 000000
2014-05-28 08:49:57,0.01,0.70,0.00,22.59,27.50,30.49,9.64,40.54,1016.61,2037.33,3220.01,3115.99,3366.31,499.81,497.10,28.42,0000 0000 0000 0000 000000
2014-05-28 08:54:58,0.05,0.70,0.00,22.60,27.50,30.48,9.66,40.59,1016.61,2037.39,3219.49,3115.58,3366.00,500.09,497.48,28.46,0000 0000 0000 0000 000000
2014-05-28 08:59:59,0.01,0.70,0.00,22.59,27.49,30.49,9.64,40.58,1016.62,2037.41,3219.01,3115.03,3365.73,499.92,497.36,28.50,0000 0000 0000 0000 000000
2014-05-28 09:05:00,0.01,0.70,0.00,22.59,27.49,30.50,9.71,40.57,1016.58,2037.27,3218.47,3114.99,3365.03,500.46,497.93,28.55,0000 0000 0000 0000 000000
2014-05-28 09:10:01,0.04,0.70,0.00,22.54,27.49,30.49,9.63,40.59,1016.26,2037.33,3218.00,3114.58,3364.94,499.94,497.18,28.59,0000 0000 0000 0000 000000
2014-05-28 09:15:02,0.07,0.71,0.00,22.54,27.49,30.50,9.65,40.63,1016.17,2037.67,3217.78,3114.07,3364.46,499.67,497.09,28.63,0000 0000 0000 0000 000000
2014-05-28 09:20:03,0.01,0.71,0.00,22.58,27.49,30.49,9.65,40.44,1016.18,2037.73,3217.09,3114.00,3364.02,499.94,497.17,28.67,0000 0000 0000 0000 000000
2014-05-28 09:25:04,0.03,0.71,0.00,22.57,27.50,30.49,9.65,40.52,1016.15,2037.79,3216.72,3113.81,3363.84,500.01,497.02,28.71,0000 0000 0000 0000 000000
2014-05-28 09:30:05,0.03,0.71,0.00,22.57,27.49,30.50,9.63,40.63,1016.13,2037.74,3216.04,3113.13,3363.10,500.19,497.38,28.75,0000 0000 0000 0000 000000
2014-05-28 09:35:07,0.02,0.71,0.00,22.57,27.49,30.50,9.62,40.61,1016.13,2037.74,3215.78,3113.00,3362.99,500.01,497.13,28.80,0000 0000 0000 0000 000000
2014-05-28 09:40:08,0.02,0.71,0.00,22.57,27.50,30.51,9.67,40.50,1016.13,2037.72,3215.04,3112.63,3362.35,500.10,497.32,28.84,0000 0000 0000 0000 000000
2014-05-28 09:45:09,-0.02,0.71,0.00,22.53,27.50,30.50,9.68,40.56,1016.13,2037.26,3214.86,3112.03,3361.96,500.15,497.19,28.88,0000 0000 0000 0000 000000
2014-05-28 09:50:10,0.05,0.71,0.00,22.55,27.50,30.52,9.67,40.48,1016.13,2037.31,3214.06,3111.99,3361.40,500.19,497.43,28.92,0000 0000 0000 0000 000000
2014-05-28 09:55:11,0.03,0.71,0.00,22.57,27.50,30.51,9.61,40.58,1016.13,2037.51,3213.85,3111.56,3361.03,499.81,497.03,28.96,0000 0000 0000 0000 000000
2014-05-28 10:00:12,0.02,0.72,0.00,22.51,27.50,30.50,9.63,40.52,1016.13,2037.43,3213.07,3111.02,3360.78,500.49,497.60,29.01,0000 0000 0000 0000 000000
2014-05-28 10:05:14,0.02,0.72,0.00,22.50,27.50,30.51,9.66,40.55,1016.13,2037.46,3212.65,3110.98,3360.05,500.08,497.43,29.05,0000 0000 0000 0000 000000
2014-05-28 10:10:15,0.05,0.72,0.00,22.53,27.50,30.52,9.60,40.50,1016.13,2037.53,3212.04,3110.42,3359.99,499.82,497.02,29.09,0000 0000 0000 0000 000000
2014-05-28 10:15:16,0.02,0.72,0.00,22.52,27.50,30.51,9.62,40.58,1016.09,2037.55,3211.71,3110.01,3359.28,499.31,496.59,29.13,0000 0000 0000 0000 000000
2014-05-28 10:20:17,0.02,0.72,0.00,22.47,27.50,30.52,9.71,40.66,1015.89,2037.56,3211.04,3109.92,3359.00,500.22,497.55,29.17,0000 0000 0000 0000 000000
2014-05-28 10:25:18,0.02,0.72,0.00,22.45,27.50,30.53,9.70,40.68,1015.66,2037.36,3210.69,3109.22,3358.48,500.24,497.30,29.22,0000 0000 0000 0000 000000
2014-05-28 10:30:19,0.00,0.72,0.00,22.45,27.50,30.52,9.63,40.63,1015.64,2037.29,3210.02,3109.00,3358.01,499.90,497.05,29.26,0000 0000 0000 0000 000000
2014-05-28 10:35:20,0.02,0.72,0.00,22.47,27.50,30.52,9.61,40.73,1015.64,2037.20,3209.81,3108.80,3357.69,499.32,496.44,29.30,0000 0000 0000 0000 000000
2014-05-28 10:40:22,0.04,0.72,0.00,22.47,27.50,30.52,9.64,40.68,1015.64,2037.11,3209.05,3108.08,3357.04,499.98,497.03,29.34,0000 0000 0000 0000 000000
2014-05-28 10:45:23,0.00,0.72,0.00,22.19,27.50,30.44,9.76,40.89,1015.64,2037.12,3208.94,3108.00,3356.98,500.15,497.79,29.38,0000 0000 0000 0000 000000
2014-05-28 10:50:24,0.04,0.73,0.00,21.78,27.50,30.29,9.69,40.81,1015.64,2037.15,3208.22,3107.89,3356.41,500.19,498.33,29.42,0000 0000 0000 0000 000000
2014-05-28 10:55:25,0.01,0.73,0.00,21.61,27.50,29.98,9.68,40.88,1015.63,2037.08,3207.96,3107.13,3356.01,499.74,498.19,29.47,0000 0000 0000 0000 000000
2014-05-28 11:00:26,0.02,0.73,0.00,21.51,27.50,29.86,9.77,40.90,1015.64,2037.08,3207.21,3107.00,3355.81,500.07,498.87,29.51,0000 0000 0000 0000 000000
2014-05-28 11:05:28,0.02,0.73,0.00,21.46,27.49,29.64,9.75,40.92,1015.62,2037.13,3206.97,3106.97,3355.24,500.13,498.68,29.55,0000 0000 0000 0000 000000
2014-05-28 11:10:29,0.05,0.73,0.00,21.42,27.48,29.52,9.79,40.95,1015.58,2037.19,3206.40,3106.58,3355.00,500.15,499.06,29.59,0000 0000 0000 0000 000000
2014-05-28 11:15:30,0.01,0.73,0.00,21.41,27.47,29.41,9.62,40.95,1015.45,2037.20,3206.01,3106.02,3354.83,499.97,498.63,29.63,0000 0000 0000 0000 000000
2014-05-28 11:20:31,0.03,0.73,0.00,21.40,27.47,29.35,9.60,40.75,1015.35,2037.24,3205.72,3106.00,3354.16,500.05,498.81,29.68,0000 0000 0000 0000 000000
2014-05-28 11:25:32,0.02,0.73,0.00,21.35,27.45,29.31,9.61,40.63,1015.25,2037.23,3205.05,3105.80,3353.99,499.58,498.36,29.72,0000 0000 0000 0000 000000
2014-05-28 11:30:34,0.05,0.74,0.00,21.32,27.45,29.28,9.74,40.81,1015.22,2037.41,3204.94,3105.13,3353.90,500.12,498.84,29.76,0000 0000 0000 0000 000000
2014-05-28 11:35:35,0.06,0.74,0.00,21.32,27.44,29.23,9.71,40.78,1015.17,2037.68,3204.29,3105.01,3353.29,499.87,498.65,29.80,0000 0000 0000 0000 000000
2014-05-28 11:40:36,0.01,0.74,0.00,21.35,27.42,29.30,9.70,40.77,1015.16,2037.83,3204.00,3105.00,3353.03,499.91,498.78,29.84,0000 0000 0000 0000 000000
2014-05-28 11:45:37,0.02,0.74,0.00,21.32,27.42,29.30,9.72,40.94,1015.15,2037.89,3203.70,3104.92,3352.98,500.02,498.95,29.89,0000 0000 0000 0000 000000
2014-05-28 11:50:38,0.04,0.74,0.00,21.32,27.40,29.25,9.68,40.84,1015.15,2037.88,3203.04,3104.25,3352.51,500.10,498.84,29.93,0000 0000 0000 0000 000000
2014-05-28 11:55:39,0.02,0.74,0.00,21.30,27.40,29.36,9.61,40.66,1015.15,2037.95,3202.82,3104.01,3352.03,499.70,498.69,29.97,0000 0000 0000 0000 000000
2014-05-28 12:00:40,0.01,0.74,0.00,21.27,27.40,29.34,9.73,40.90,1015.13,2037.97,3202.24,3103.99,3351.99,500.15,499.06,30.01,0000 0000 0000 0000 000000
2014-05-28 12:05:41,0.01,0.74,0.00,21.29,27.38,29.29,9.74,40.89,1015.10,2037.99,3202.00,3103.92,3351.84,500.30,499.14,30.05,0000 0000 0000 0000 000000
2014-05-28 12:10:42,0.05,0.75,0.00,21.31,27.37,29.26,9.64,40.82,1015.01,2037.99,3201.63,3103.34,3351.14,499.60,498.35,30.09,0000 0000 0000 0000 000000
2014-05-28 12:15:44,0.01,0.75,0.00,21.30,27.37,29.28,9.73,40.88,1014.89,2037.99,3201.03,3103.00,3350.99,500.47,499.16,30.14,0000 0000 0000 0000 000000
2014-05-28 12:20:45,0.01,0.75,0.00,21.29,27.36,29.33,9.70,40.92,1014.90,2037.98,3200.89,3102.98,3350.63,500.35,499.18,30.18,0000 0000 0000 0000 000000
2014-05-28 12:25:46,0.04,0.75,0.00,21.23,27.35,29.33,9.73,40.88,1014.93,2037.98,3200.16,3102.50,3350.05,500.30,499.23,30.22,0000 0000 0000 0000 000000
2014-05-28 12:30:47,0.01,0.75,0.00,21.25,27.35,29.38,9.63,40.92,1014.71,2037.99,3199.92,3102.02,3349.98,499.94,498.56,30.26,0000 0000 0000 0000 000000
2014-05-28 12:35:48,0.03,0.75,0.00,21.24,27.35,29.41,9.69,40.96,1014.68,2037.99,3199.15,3102.00,3349.46,500.06,498.81,30.30,0000 0000 0000 0000 000000
2014-05-28 12:40:49,0.00,0.75,0.00,21.25,27.35,29.41,9.68,40.85,1014.67,2037.99,3199.00,3101.92,3349.03,500.15,498.93,30.35,0000 0000 0000 0000 000000
2014-05-28 12:45:50,0.03,0.75,0.00,21.25,27.35,29.42,9.71,40.96,1014.66,2037.99,3198.84,3101.26,3348.99,499.91,498.41,30.39,0000 0000 0000 0000 000000
2014-05-28 12:50:52,0.03,0.75,0.00,21.25,27.34,29.38,9.59,40.84,1014.66,2037.99,3198.11,3101.01,3348.53,499.65,498.32,30.43,0000 0000 0000 0000 000000
2014-05-28 12:55:52,0.01,0.75,0.00,21.21,27.33,29.41,9.69,40.91,1014.66,2037.99,3197.80,3100.95,3348.01,500.13,498.97,30.47,0000 0000 0000 0000 000000
2014-05-28 13:00:54,0.05,0.76,0.00,21.21,27.32,29.38,9.64,40.96,1014.66,2037.99,3197.06,3100.33,3347.70,499.70,498.54,30.51,0000 0000 0000 0000 000000